Back to catalog

STARLINK-34928

AliveCommunicationsSSO
NORAD 65195·PAYLOAD·🇺🇸 United States

Launched Aug 14, 2025 from Vandenberg Space Force Base

Loading…

Next Passes (next 24 hours)

TLE

FreshSource: CelesTrak SupGP

Epoch: Sep 14, 2026, 22:30 UTC

1 65195C 25175X   26257.93798611  .00056349  00000+0  17494-2 0  2572
2 65195  97.2848 126.9339 0002146  95.4592 342.1064 15.33404786    18

Track STARLINK-34928 in real time with AllMySat

Download on the App Store